Total_Precipitation_Accumulation
0.35 0.36 0.39 0.46 0.49 0.52 0.55 0.54 0.52 0.55 0.60 0.59 0.55 0.53 0.55 0.63 0.74 0.82 0.82 0.83 0.87 0.87 0.87 0.89 0.88 0.88 0.92 0.92 0.93 0.94 0.99 1.18 1.18 0.57 0.38 0.44 0.57 0.62 0.63 0.60 0.60 0.63 0.65
0.33 0.37 0.41 0.47 0.51 0.55 0.59 0.62 0.63 0.63 0.65 0.67 0.67 0.63 0.57 0.57 0.66 0.75 0.80 0.82 0.87 0.88 0.90 0.95 0.96 0.97 1.00 1.01 1.06 1.06 1.04 1.08 1.19 0.87 0.51 0.49 0.57 0.63 0.68 0.69 0.63 0.63 0.64
0.34 0.36 0.40 0.47 0.55 0.62 0.65 0.66 0.67 0.69 0.73 0.74 0.75 0.76 0.71 0.70 0.75 0.78 0.80 0.82 0.83 0.83 0.85 0.92 0.96 1.04 1.08 1.06 1.08 1.08 1.04 0.98 1.03 1.02 0.71 0.56 0.60 0.66 0.73 0.77 0.76 0.76 0.72
0.39 0.40 0.46 0.53 0.58 0.66 0.70 0.70 0.71 0.73 0.75 0.78 0.80 0.81 0.84 0.89 1.00 1.03 0.94 0.92 0.86 0.83 0.82 0.87 0.94 1.06 1.15 1.23 1.30 1.21 1.14 1.19 1.20 1.19 0.98 0.77 0.71 0.72 0.88 0.93 0.91 0.85 0.81
0.54 0.54 0.54 0.58 0.60 0.59 0.63 0.67 0.69 0.73 0.76 0.75 0.74 0.77 0.82 0.95 1.26 1.29 1.11 1.01 0.95 0.89 0.84 0.84 0.88 1.06 1.28 1.49 1.62 1.56 1.54 1.60 1.55 1.52 1.33 1.08 0.92 0.92 1.00 0.99 1.04 0.93 0.90
0.62 0.65 0.60 0.57 0.58 0.61 0.60 0.60 0.64 0.68 0.69 0.68 0.67 0.68 0.77 0.94 1.36 1.41 1.20 0.98 0.94 0.94 0.92 0.85 0.82 0.91 1.03 1.23 1.46 1.55 1.65 1.79 1.86 1.82 1.67 1.43 1.11 0.99 1.05 1.22 1.35 1.36 1.20
0.62 0.66 0.69 0.61 0.57 0.59 0.58 0.55 0.54 0.56 0.59 0.60 0.60 0.60 0.62 0.80 1.22 1.30 1.15 0.90 0.81 0.82 0.82 0.77 0.76 0.76 0.83 0.80 0.95 1.06 1.16 1.36 1.62 1.80 1.88 1.53 1.25 1.13 1.33 1.56 1.60 1.58 1.32
0.65 0.62 0.63 0.57 0.51 0.53 0.56 0.52 0.47 0.46 0.51 0.53 0.53 0.52 0.49 0.56 0.95 1.21 1.09 0.78 0.71 0.72 0.73 0.74 0.76 0.74 0.74 0.83 0.92 0.95 0.89 0.92 1.16 1.42 1.57 1.43 1.33 1.35 1.58 1.89 2.04 2.09 1.73
0.59 0.55 0.54 0.49 0.47 0.51 0.55 0.51 0.46 0.43 0.44 0.46 0.48 0.51 0.49 0.49 0.74 1.13 1.17 0.81 0.77 0.72 0.72 0.85 0.90 0.81 0.87 1.08 1.20 1.16 0.96 0.83 0.91 1.24 1.53 1.57 1.62 1.83 2.07 2.45 2.74 2.83 2.50
0.46 0.48 0.53 0.48 0.43 0.47 0.52 0.49 0.47 0.45 0.46 0.48 0.50 0.57 0.56 0.50 0.66 1.07 1.32 0.94 0.84 0.74 0.74 0.87 1.15 1.12 1.12 1.21 1.27 1.30 1.24 0.94 0.85 0.91 1.02 1.15 1.19 1.28 1.66 2.03 2.33 2.64 2.59
0.35 0.38 0.48 0.51 0.47 0.45 0.46 0.48 0.48 0.48 0.49 0.50 0.52 0.56 0.58 0.53 0.57 0.87 1.34 1.22 1.00 0.90 0.88 0.93 1.07 1.18 1.19 1.22 1.29 1.27 1.31 1.26 1.20 1.18 1.12 1.06 1.08 1.21 1.37 1.64 1.91 2.23 2.49
0.30 0.33 0.38 0.46 0.45 0.45 0.45 0.45 0.45 0.48 0.52 0.53 0.54 0.55 0.56 0.57 0.59 0.76 1.12 1.34 1.26 1.05 0.99 0.90 0.98 1.14 1.20 1.23 1.19 1.20 1.30 1.35 1.28 1.25 1.19 1.10 1.06 1.12 1.19 1.34 1.60 1.78 1.95
0.27 0.31 0.35 0.41 0.41 0.41 0.43 0.44 0.43 0.45 0.51 0.56 0.57 0.59 0.58 0.59 0.63 0.78 0.90 1.02 1.16 1.08 1.05 1.20 1.18 1.15 1.10 1.04 1.04 1.11 1.13 1.09 1.14 1.14 1.03 0.92 0.87 0.92 1.03 1.20 1.39 1.57 1.71
0.28 0.33 0.38 0.42 0.44 0.43 0.41 0.41 0.42 0.48 0.62 0.71 0.71 0.69 0.64 0.61 0.70 0.90 0.96 0.93 1.02 1.06 1.06 1.15 1.16 1.05 0.94 0.90 0.93 0.94 0.93 1.00 1.11 1.12 0.99 0.88 0.83 0.90 1.02 1.13 1.31 1.46 1.70
0.33 0.38 0.42 0.46 0.47 0.46 0.43 0.43 0.47 0.51 0.74 1.00 0.97 0.96 0.97 0.94 1.01 1.32 1.34 1.24 1.24 1.27 1.28 1.26 1.14 1.00 0.92 0.84 0.80 0.77 0.79 0.91 1.03 1.02 1.03 1.02 0.98 1.00 1.04 1.07 1.25 1.42 1.61
0.35 0.37 0.43 0.49 0.52 0.50 0.47 0.47 0.49 0.52 0.62 0.70 0.76 0.89 0.91 1.06 1.20 1.21 1.18 1.18 1.22 1.27 1.30 1.22 1.02 0.91 0.86 0.82 0.81 0.81 0.79 0.82 0.87 0.94 1.01 1.04 1.06 1.08 1.08 1.08 1.24 1.41 1.48
0.38 0.41 0.45 0.47 0.49 0.51 0.53 0.53 0.53 0.51 0.52 0.55 0.60 0.68 0.81 0.99 1.06 1.05 1.10 1.06 1.05 1.07 1.07 0.96 0.87 0.85 0.82 0.80 0.81 0.82 0.79 0.75 0.81 0.92 1.00 1.04 1.08 1.12 1.13 1.14 1.19 1.29 1.34
0.41 0.45 0.48 0.49 0.51 0.51 0.54 0.56 0.55 0.55 0.55 0.56 0.55 0.59 0.69 0.82 0.91 0.95 1.02 0.99 0.94 0.86 0.85 0.86 0.84 0.81 0.80 0.80 0.81 0.82 0.80 0.78 0.82 0.89 0.94 0.97 1.03 1.12 1.13 1.08 1.09 1.21 1.30
0.37 0.41 0.44 0.48 0.50 0.52 0.55 0.57 0.57 0.56 0.57 0.57 0.58 0.61 0.67 0.71 0.78 0.85 0.87 0.83 0.84 0.79 0.77 0.78 0.78 0.81 0.83 0.82 0.80 0.80 0.82 0.84 0.82 0.84 0.87 0.88 0.93 1.04 1.07 0.99 1.02 1.12 1.31
0.35 0.43 0.48 0.49 0.51 0.52 0.55 0.58 0.60 0.62 0.61 0.60 0.62 0.68 0.76 0.81 0.82 0.80 0.78 0.77 0.79 0.78 0.75 0.79 0.76 0.77 0.82 0.84 0.83 0.81 0.83 0.82 0.79 0.80 0.81 0.82 0.87 0.98 1.02 0.97 1.03 1.13 1.22
0.39 0.43 0.49 0.49 0.51 0.53 0.58 0.63 0.65 0.68 0.69 0.66 0.63 0.67 0.97 1.11 0.97 0.81 0.77 0.80 0.85 0.87 0.85 0.83 0.77 0.72 0.74 0.79 0.83 0.83 0.82 0.77 0.74 0.80 0.83 0.84 0.87 0.95 0.95 0.99 1.03 1.09 1.18
0.44 0.48 0.50 0.52 0.53 0.57 0.63 0.65 0.66 0.69 0.69 0.66 0.63 0.62 0.72 0.75 0.74 0.73 0.74 0.79 0.86 0.90 0.92 0.93 0.85 0.74 0.74 0.83 0.89 0.91 0.84 0.74 0.71 0.80 0.88 0.87 0.88 0.93 0.97 1.01 1.03 1.10 1.17
0.50 0.54 0.54 0.53 0.55 0.62 0.62 0.58 0.62 0.65 0.67 0.64 0.62 0.62 0.64 0.68 0.71 0.75 0.78 0.81 0.87 0.90 0.89 0.89 0.86 0.75 0.68 0.74 0.83 0.94 0.97 0.86 0.81 0.93 1.06 1.03 0.97 0.97 1.01 1.04 1.03 1.09 1.13
0.57 0.59 0.59 0.58 0.58 0.59 0.60 0.59 0.60 0.62 0.65 0.66 0.65 0.66 0.68 0.69 0.71 0.75 0.78 0.82 0.86 0.87 0.86 0.86 0.82 0.75 0.70 0.72 0.75 0.78 0.83 0.93 1.13 1.28 1.25 1.25 1.14 1.02 1.02 1.05 1.02 1.02 1.07
0.59 0.60 0.62 0.63 0.63 0.64 0.64 0.61 0.60 0.63 0.66 0.67 0.68 0.68 0.68 0.69 0.70 0.73 0.77 0.82 0.86 0.86 0.82 0.80 0.79 0.75 0.71 0.69 0.68 0.71 0.81 0.99 1.23 1.56 1.77 1.70 1.40 1.14 1.09 1.09 1.04 1.02 1.06
0.57 0.56 0.58 0.61 0.64 0.68 0.71 0.70 0.67 0.68 0.72 0.71 0.69 0.71 0.74 0.75 0.75 0.77 0.81 0.88 0.93 0.90 0.85 0.80 0.75 0.71 0.70 0.69 0.68 0.73 0.87 1.08 1.30 1.57 2.00 2.16 1.76 1.32 1.17 1.19 1.10 1.08 1.12